Location: Teijeburen
(53.3833°N, 5.9333°E)
Time: 00:12:06
(UTC+00:00)

Daily predictions for brighter satellites

Satellite Brightness Start Highest point End
(mag) Time Altitude Azimuth Time Altitude Azimuth Time Altitude Azimuth
SL-16 R/B 3.9 00:24:54 32° NE 00:24:54 32° NE 00:30:03 10° N
Cosmos 2360 Rocket 4.3 00:21:25 10° NNW 00:23:33 22° NNW 00:23:33 22° NNW
CZ-2D R/B 4.3 00:27:56 10° NE 00:30:15 20° ENE 00:30:15 20° ENE
Cosmos 1833 Rocket 4.5 00:48:30 27° N 00:48:30 27° N 00:51:23 10° NNE
Cosmos 2082 Rocket 3.8 00:50:59 31° NNE 00:50:59 31° NNE 00:53:54 10° NNE
Lacrosse 4 Rocket 4.5 00:57:02 13° NE 00:57:02 13° NE 00:57:34 10° NE
Cosmos 2333 Rocket 4.2 00:52:48 10° NNW 00:54:48 22° NNW 00:54:48 22° NNW
COSMOS 2428 4.5 00:57:32 10° NNW 01:02:27 29° NE 01:07:21 10° E
ATLAS 5 CENTAUR R/B 4.4 01:05:49 14° NE 01:05:49 14° NE 01:06:37 10° NE
Cosmos 2219 Rocket 3.9 01:06:14 10° NNW 01:09:04 27° N 01:09:04 27° N
ATLAS 3B R/B 4.2 01:09:15 10° NW 01:27:31 - SE 01:12:35 29° NW
USA 215 3.7 01:11:01 10° E 01:16:10 56° ENE 01:16:10 56° ENE
ATLAS 2AS CENTAUR R/B 3.2 01:22:05 58° E 01:22:05 58° E 01:28:10 10° NE
USA 229 DEB 4.3 01:32:34 10° NW 01:39:37 60° NNE 01:47:21 10° ESE
USA 229 4.3 01:32:40 10° NW 01:39:42 60° NNE 01:47:25 10° ESE
Resurs 1-4 Rocket 3.1 01:40:06 10° NNE 01:43:37 43° NNE 01:43:37 43° NNE
S3M 4.2 01:40:25 10° N 01:46:24 68° NE 01:46:24 68° NE
NOSS 3-4 (A) 4.4 01:47:57 37° NNW 01:48:28 38° NNW 01:54:38 10° NE
NOSS 3-4 (C) 4.4 01:48:03 37° NNW 01:48:33 38° NNW 01:54:44 10° NE
NOSS 3-1 (A) 3.8 01:55:41 81° W 01:56:04 85° SW 02:04:41 10° SE
NPP 4.4 01:50:56 10° NNE 01:54:49 48° N 01:54:49 48° N
ATLAS CENTAUR R/B 4.0 01:59:19 15° NNE 01:59:19 15° NNE 02:00:45 10° NE
USA 281 3.4 01:59:54 10° NNE 02:06:25 59° ESE 02:07:16 55° SE
ADEOS II 2.5 02:02:21 10° NNE 02:06:36 58° NNE 02:06:36 58° NNE
SL-16 R/B 3.2 02:10:01 42° NW 02:10:01 42° NW 02:14:07 10° NNW
Cosmos 2266 Rocket 4.2 02:09:14 64° SE 02:09:55 69° E 02:16:18 10° NNE
Cosmos 2315 Rocket 4.2 02:05:03 10° N 02:11:27 71° ENE 02:13:09 50° SE
CZ-2D R/B 2.7 02:07:26 10° NNE 02:11:32 50° N 02:11:32 50° N
CZ-2C R/B 3.2 02:19:07 47° NNW 02:19:07 47° NNW 02:22:54 10° NNW
MSX 3.9 02:12:08 10° NNE 02:17:13 67° NNW 02:17:13 67° NNW
IDEFIX/ARIANE 42P 3.3 02:15:58 10° N 02:19:53 46° NNW 02:19:53 46° NNW
Cosmos 292 Rocket 4.3 02:23:49 56° NE 02:23:49 56° NE 02:27:43 10° NNE
Cosmos 2237 Rocket 3.5 02:18:51 10° NNW 02:24:11 39° NE 02:29:30 10° ESE
Cosmos 2221 3.7 02:26:56 38° NNE 02:26:56 38° NNE 02:29:41 10° NNE
CZ-4 R/B 4.1 02:25:16 10° NNE 02:29:31 65° ENE 02:29:31 65° ENE
Lacrosse 5 rocket 2.9 02:31:30 29° E 02:31:30 29° E 02:33:46 10° ENE
Lacrosse 4 Rocket 3.5 02:33:06 21° NNW 02:33:06 21° NNW 02:35:44 10° NNE
Cosmos 2082 Rocket 3.6 02:32:50 26° NW 02:33:03 26° NW 02:37:48 10° NNE
SL-16 R/B 4.4 02:28:36 10° NNW 02:33:08 23° NNE 02:37:39 10° E
ATLAS CENTAUR R/B 3.5 02:34:11 58° WSW 02:36:02 85° NNW 02:49:02 10° ENE
Cosmos 2322 4.4 02:33:02 10° NW 02:43:22 16° SSE 02:44:26 10° SSE
Cosmos 1500 Rocket 4.1 02:34:31 10° N 02:38:51 54° ENE 02:39:12 53° E
FENGYUN 3A 3.5 02:39:08 10° NNE 02:44:33 86° WNW 02:44:55 78° SW
NOSS 0 Rocket 4.1 02:39:40 10° NNW 02:45:58 75° NE 02:52:13 10° SE
Cosmos 1378 4.5 02:47:37 35° ENE 02:47:37 35° ENE 02:50:29 10° NNE
COSMOS 2428 2.5 02:41:38 10° NNW 02:47:21 83° WSW 02:53:04 10° SSE
ATLAS 5 CENTAUR R/B 3.3 02:46:58 21° NNW 02:47:49 23° N 02:51:35 10° NE
SL-27 R/B 4.4 02:50:53 25° NE 02:50:53 25° NE 02:52:22 10° NNE
Timation 1 Rocket 4.2 02:49:01 64° SSW 02:50:01 89° ESE 02:56:02 10° NE
Cosmos 44 4.4 02:49:57 35° NW 02:50:30 35° NNW 02:55:29 10° NE
CZ-2C R/B 3.3 02:49:53 10° NNE 02:54:29 44° E 02:56:49 25° SSE
Cosmos 2219 Rocket 4.4 02:50:19 10° NW 02:50:41 12° NW 02:50:41 12° NW
ALOS 2.1 02:51:32 10° NNE 02:56:13 89° WNW 02:56:20 85° SSW
Cosmos 1937 Rocket 4.5 02:59:26 32° NW 02:59:26 32° NW 03:03:55 10° NNE
USA 215 3.1 02:54:07 10° SE 03:00:38 69° SSW 03:03:31 36° WNW
Cosmos 1842 Rocket 3.6 03:09:35 65° WNW 03:09:35 65° WNW 03:13:52 10° N
Cosmos 2084 Rocket 3.5 03:11:36 59° NNW 03:11:36 59° NNW 03:15:15 10° NE
ATLAS 2AS CENTAUR R/B 3.2 03:09:31 36° W 03:12:17 54° NNW 03:19:14 10° NE
Meteor 1-26 Rocket 4.4 03:11:33 49° W 03:12:21 53° WNW 03:17:54 10° N
Cosmos 1655 Rocket 4.1 03:13:15 43° SW 03:15:10 60° WNW 03:21:30 10° N
Cosmos 1833 4.3 03:14:15 49° W 03:15:24 59° NW 03:20:59 10° NNE
CZ-2C R/B 3.2 03:11:50 10° NNE 03:17:36 77° WNW 03:19:54 37° SSW
SL-08 ROCKET BODY 4.4 03:16:47 42° SW 03:18:40 60° WNW 03:24:41 10° N
Cosmos 2150 Rocket 4.4 03:16:29 25° S 03:19:32 62° ESE 03:24:43 10° NNE
Thor Agena Rocket 3.6 03:14:57 10° N 03:20:09 61° WNW 03:21:27 46° WSW
Resurs 1-4 Rocket 3.5 03:20:44 10° N 03:24:39 22° NW 03:24:40 22° NW
Helios 1A 4.1 03:21:58 10° SE 03:25:51 44° ENE 03:29:45 10° N
Cosmos 1743 Rocket 3.4 03:21:40 10° NNW 03:25:59 68° W 03:27:40 36° S
Meteor 1-11 Rocket 3.7 03:21:07 10° NNW 03:27:02 84° W 03:33:00 10° S
Cosmos 614 Rocket 4.1 03:22:01 10° NNW 03:27:11 76° ENE 03:32:21 10° SSE
Cosmos 1805 Rocket 3.4 03:24:03 10° NNW 03:28:22 68° W 03:30:45 26° S
Cosmos 1980 3.6 03:24:46 10° NNW 03:30:28 88° WSW 03:36:09 10° SSE
USA 229 DEB 4.0 03:23:37 10° NW 03:30:45 57° SW 03:38:29 10° SSE
USA 229 4.0 03:23:42 10° NW 03:30:51 57° SW 03:38:34 10° SSE
Cosmos 1633 Rocket 4.0 03:30:15 10° N 03:34:33 49° ENE 03:38:49 10° SSE
Sich 1 2.9 03:32:54 10° NNW 03:37:12 61° W 03:41:10 12° S
ATLAS CENTAUR R/B 2.3 03:34:45 15° NNW 03:37:26 38° NE 03:40:49 10° ESE
Meteor 2-9 Rocket 4.4 03:33:36 10° NNW 03:39:31 82° ENE 03:45:17 10° SSE
Cosmos 1484 Rocket 3.9 03:36:12 10° NNE 03:39:39 40° E 03:43:05 10° S
NOAA 11 4.5 03:34:39 10° NNE 03:40:10 68° ESE 03:45:37 10° S
Meteor 2-6 Rocket 4.1 03:38:04 31° SW 03:40:29 58° WNW 03:45:51 10° N
H-2A R/B 4.5 03:36:22 10° NE 03:40:50 25° E 03:45:14 10° SE
GP-B 3.0 03:38:17 17° S 03:41:39 71° W 03:46:06 10° N
YAOGAN 6 2.3 03:41:00 10° NNE 03:44:25 83° WNW 03:45:34 39° SSW
Cosmos 1244 Rocket 4.4 03:39:43 12° SSW 03:45:40 75° WNW 03:52:03 10° N
BlueWalker 3 4.2 03:48:24 13° S 03:48:24 13° S 03:49:02 10° S
ADEOS II 3.4 03:42:47 10° N 03:46:45 22° NW 03:47:29 22° WNW
Meteor 1-10 Rocket 4.1 03:44:45 14° SSW 03:49:36 76° WNW 03:55:11 10° NNE
USA 281 3.7 03:44:39 10° NNE 03:50:46 43° NW 03:54:08 25° W
IRS-1D 3.7 03:45:37 10° N 03:50:51 58° WNW 03:54:06 22° SW
CZ-2D R/B 3.8 03:48:43 10° NNW 03:51:55 16° NW 03:52:50 16° WNW
SL-16 R/B 4.4 03:55:06 12° WNW 03:55:06 12° WNW 03:55:51 10° NW
Envisat 2.9 03:48:03 10° NNE 03:53:09 75° WNW 03:57:47 12° SSW
CZ-2C R/B 4.4 04:00:38 14° WNW 04:00:38 14° WNW 04:01:56 10° NW
IDEFIX/ARIANE 42P 4.4 03:57:04 10° NNW 03:59:42 14° NW 04:00:39 13° WNW
TIMED 4.4 03:58:24 20° SSW 04:01:24 81° WNW 04:05:46 10° NNE
Cosmos 2297 Rocket 2.8 03:56:42 10° SSW 04:02:13 59° ESE 04:07:47 10° NE
Cosmos 2221 4.4 04:03:39 15° NW 04:03:39 15° NW 04:05:55 10° NNW
Cosmos 1536 3.3 04:01:35 10° NNW 04:05:08 34° W 04:07:16 19° SW
Cosmos 2237 Rocket 2.3 04:02:57 10° NW 04:08:30 54° WSW 04:13:59 10° S
Lacrosse 5 rocket 1.3 04:06:40 28° W 04:08:37 64° NNW 04:12:26 10° ENE
Cosmos 1125 Rocket 3.9 04:06:14 23° WSW 04:09:09 45° NW 04:14:10 10° NNE
METEOR-M 4.4 04:04:36 10° N 04:09:44 48° WNW 04:13:57 15° SW
Cosmos 1470 Rocket 3.9 04:06:55 10° N 04:11:24 70° ENE 04:15:51 10° SSE
Lacrosse 4 Rocket 3.9 04:10:31 10° NNW 04:12:21 12° N 04:14:12 10° NNE
Meteor 2-10 4.0 04:08:29 10° NNW 04:13:51 88° ENE 04:19:00 10° SSE
SL-16 R/B 2.5 04:12:30 10° NNW 04:18:14 73° NE 04:23:56 10° SE
Cosmos 2082 Rocket 4.4 04:16:23 10° NW 04:19:15 14° N 04:22:08 10° NNE
Okean 1 3.2 04:17:08 10° SSW 04:20:56 64° WNW 04:24:48 10° N
Cosmos 1726 1.8 04:17:55 10° NNW 04:21:21 76° W 04:24:46 10° S
Cosmos 1378 4.3 04:21:28 20° WNW 04:21:53 21° WNW 04:24:38 10° NNW
H-2A R/B 2.7 04:18:26 10° NNE 04:21:56 72° ESE 04:25:24 10° S
ERS-2 3.4 04:20:23 10° NNE 04:23:21 37° E 04:26:18 10° S
SL-27 R/B 4.3 04:23:28 13° NW 04:23:43 14° NW 04:25:26 10° NNW
Cosmos 1975 2.8 04:19:51 10° N 04:23:49 82° E 04:27:47 10° SSE
SL-08 R/B 3.8 04:19:11 10° SSE 04:23:58 69° ENE 04:28:51 10° NNW
COBE Rocket 4.1 04:20:56 10° N 04:25:36 51° WNW 04:30:22 10° SW
PAYLOAD A 4.5 04:23:10 10° N 04:27:40 38° WNW 04:32:18 10° SW
IRS-1C 4.3 04:23:50 10° NNE 04:29:13 78° ESE 04:34:33 10° SSW
Nadezhda 1 Rocket 4.2 04:24:03 10° NNW 04:30:04 48° W 04:35:58 10° SSW
COSMOS 2428 4.0 04:27:09 10° WNW 04:30:46 17° W 04:34:22 10° SW
CBERS-1 4.2 04:26:19 10° N 04:31:19 54° WNW 04:36:17 10° SW
Cosmos 2344 4.4 04:24:47 10° SSW 04:31:54 50° ESE 04:39:05 10° NE
CZ-2C R/B 3.1 04:28:20 10° N 04:32:31 31° WNW 04:36:09 12° WSW
ALOS 3.9 04:29:54 10° NNW 04:32:53 17° NW 04:34:42 14° W
ATLAS 5 CENTAUR R/B 3.3 04:29:08 10° NW 04:33:10 32° NNE 04:37:59 10° E
Cosmos 1151 Rocket 3.5 04:32:46 10° SW 04:36:54 40° WNW 04:41:04 10° N
Cosmos 407 Rocket 4.0 04:34:47 10° NNW 04:40:09 68° ENE 04:45:28 10° SE
Cosmos 1733 3.1 04:37:21 10° NNW 04:40:59 58° W 04:44:36 10° S
Cosmos 1666 Rocket 4.2 04:39:36 10° NNW 04:43:33 34° W 04:47:28 10° SSW
USA 215 4.2 04:39:03 10° S 04:44:27 27° SW 04:49:53 10° WNW
ARIANE 5 R/B 2.5 04:39:33 10° NNE 04:44:38 87° WNW 04:49:37 10° SSW
Cosmos 1515 Rocket 3.9 04:40:37 10° S 04:44:58 70° E 04:49:21 10° NNE
Helios 1B rocket 4.4 04:42:26 10° NNE 04:46:04 32° E 04:49:40 10° SSE
Cosmos 1328 Rocket 3.6 04:43:36 10° SSW 04:47:58 60° WNW 04:52:19 10° N
Cosmos 2227 Rocket 2.5 04:43:21 10° SSW 04:49:00 75° ESE 04:54:42 10° NE
COSMO-SKYMED 1 2.5 04:45:03 10° S 04:49:24 74° WSW 04:53:46 10° NNW
Cosmos 1933 Rocket 3.5 04:45:20 10° N 04:49:42 90° E 04:54:02 10° S
Cosmos 44 Rocket 3.4 04:44:54 10° SW 04:50:00 81° NW 04:55:15 10° NE
Genesis I 3.0 04:47:41 10° NW 04:51:23 66° SW 04:55:02 10° SSE
Cosmos 2263 Rocket 4.2 04:47:20 10° SSE 04:52:12 31° ESE 04:57:03 10° NE
CZ-2D R/B 3.6 04:50:40 10° NNE 04:55:02 89° W 04:59:24 10° SSW
NOSS 2-1 (C) 4.3 04:52:40 10° NW 04:56:14 50° NE 05:00:54 10° ESE
Meteor 1-27 Rocket 4.2 04:51:04 10° SW 04:56:22 40° WNW 05:01:49 10° N
NOSS 2-1 (D) 4.2 04:54:41 10° NW 04:58:14 51° NE 05:02:56 10° ESE
Helios 1A 4.0 04:57:59 10° SSW 05:01:20 24° W 05:04:42 10° NW
IRS-P3 4.1 04:58:01 10° NNE 05:03:22 71° WNW 05:08:40 10° SSW
ATLAS 2AS CENTAUR R/B 3.8 04:57:57 10° WNW 05:04:37 36° N 05:10:59 10° ENE
Cosmos 1805 3.5 05:04:09 10° NNW 05:07:45 43° W 05:11:21 10° SSW
Cosmos 1709 Rocket 4.2 05:02:47 10° SSW 05:09:02 57° WNW 05:15:18 10° N
Cosmos 1140 Rocket 3.6 05:06:46 10° NNW 05:11:56 60° WSW 05:17:04 10° S
